Temp
71 68 65 69 71 71 70 68 66 67 66 68 66 67 67 69 71 71 73 74 74 74 73 74 73 74 75 75 74 73 70 71 73 74 73 72 72 73 73 74 71 70 71 71
66 64 68 71 70 69 69 66 64 63 64 67 67 64 66 67 68 71 72 73 73 71 72 71 73 74 74 74 74 74 73 74 76 77 77 77 75 74 73 72 70 70 70 70
67 67 68 69 68 66 65 65 63 64 63 66 67 63 64 64 66 67 70 72 72 72 70 71 71 72 73 73 73 75 76 76 76 75 75 74 73 72 72 72 73 69 68 70
67 68 68 68 65 66 61 66 66 62 62 58 66 57 62 63 63 65 66 69 70 71 72 72 71 72 73 72 74 75 74 73 72 73 73 71 73 72 69 71 70 70 66 66
62 65 66 65 64 66 63 66 66 65 64 61 60 59 61 64 61 63 66 68 69 70 71 71 72 72 73 71 71 72 72 72 72 71 71 71 68 69 69 69 65 66 67 67
66 70 70 67 66 67 67 65 64 64 63 52 60 59 62 61 65 65 67 68 68 70 71 72 72 72 71 71 69 70 70 69 70 69 68 66 65 65 65 64 64 65 66 66
65 65 69 70 65 66 67 63 53 50 49 48 57 56 63 68 68 70 67 68 69 69 70 69 69 70 69 68 67 68 68 66 67 66 66 65 64 63 63 62 62 60 61 62
60 53 64 67 66 64 64 64 54 41 44 53 56 53 65 67 71 73 72 71 70 69 69 70 70 69 68 66 67 67 67 66 66 65 64 64 62 64 64 61 60 60 59 59
58 56 66 65 67 67 60 57 63 51 48 49 57 61 66 65 66 69 70 70 69 70 69 68 67 67 66 66 65 66 66 66 65 64 61 59 62 60 59 59 59 59 59 59
63 54 62 63 67 66 64 65 54 56 41 40 54 54 59 59 61 66 67 67 69 70 68 67 66 65 66 66 65 65 66 65 63 60 62 62 61 60 59 59 57 57 57 57
66 61 57 61 61 61 59 59 56 58 52 46 44 56 64 63 65 64 67 68 69 68 67 65 65 65 65 65 65 64 64 62 58 62 61 60 60 59 59 58 57 56 56 56
63 61 52 58 62 64 64 61 61 51 47 48 46 54 64 64 65 68 68 69 70 68 67 66 64 64 63 63 64 63 62 62 62 61 60 60 60 59 57 57 56 55 54 55
63 58 49 52 58 62 60 61 61 56 52 46 43 54 64 64 64 67 68 69 67 65 65 64 63 62 62 62 62 61 59 58 61 61 61 61 59 57 56 56 55 55 54 53
58 58 56 50 56 60 54 58 60 60 49 51 51 59 63 64 64 66 65 68 66 63 62 63 62 62 62 62 61 60 56 61 61 61 60 59 57 57 56 55 54 54 53 52
62 54 54 54 54 55 57 58 57 57 58 51 58 58 65 67 68 68 66 64 63 61 60 61 61 62 62 62 61 57 62 61 60 59 59 57 57 56 56 54 54 53 52 52
56 52 50 48 51 52 51 58 59 59 60 58 60 58 70 69 67 65 62 61 60 59 60 61 62 62 62 62 58 61 60 59 59 57 57 57 56 54 53 53 52 52 52 52
54 48 47 46 47 47 41 51 58 59 61 59 54 63 65 61 61 63 62 61 60 60 61 61 62 62 62 61 61 60 60 59 57 56 55 54 53 52 52 53 52 52 51 51
46 48 45 43 39 35 57 59 59 60 62 64 63 62 63 64 64 64 66 63 61 62 62 63 63 62 62 61 61 61 59 57 55 54 53 53 52 52 52 52 51 51 51 50
54 50 40 39 44 51 58 56 54 53 58 65 63 65 62 59 59 62 63 65 64 63 64 64 64 63 61 61 60 57 56 55 53 52 52 52 51 51 51 50 50 50 50 49
50 49 50 40 38 36 54 57 59 59 51 62 62 61 58 57 52 65 65 64 63 65 65 63 63 61 60 58 55 55 54 51 50 50 50 51 51 50 50 49 49 49 49 48
43 42 40 41 39 48 58 58 60 46 52 61 61 61 59 57 64 63 63 64 63 64 62 61 59 58 57 56 55 52 50 50 50 49 50 50 50 49 49 49 49 49 48 47
46 43 39 38 36 37 58 56 50 58 61 60 60 62 60 63 60 59 58 59 61 60 58 58 55 52 49 51 52 51 50 51 49 48 48 48 48 47 48 47 48 48 47 44
46 52 50 50 52 58 60 62 63 61 60 61 61 64 61 61 60 58 57 57 57 58 56 52 48 46 49 51 50 49 50 48 47 46 46 47 46 47 47 46 46 46 46 43
52 53 50 48 58 59 61 63 64 64 62 64 65 63 63 60 62 59 56 55 55 54 50 52 44 46 47 47 48 48 48 47 45 44 44 45 43 40 43 46 46 45 44 42
55 53 52 52 58 60 61 62 63 64 64 62 63 61 60 59 59 58 54 53 52 44 42 43 44 46 46 46 47 47 45 45 43 42 42 43 42 40 39 39 41 42 45 43
54 55 50 50 63 59 61 62 61 60 60 60 59 59 56 56 55 55 52 47 43 41 40 41 43 43 44 44 43 43 44 43 41 39 41 43 42 41 40 39 39 36 35 34
MSLP
1010.24 1009.62 1008.93 1008.70 1008.79 1008.55 1008.50 1008.78 1009.42 1010.67 1011.80 1011.56 1011.87 1012.49 1013.35 1014.11 1014.33 1014.55 1014.64 1015.07 1015.56 1016.22 1017.33 1017.86 1018.27 1018.47 1018.76 1019.29 1019.83 1020.57 1021.25 1021.65 1021.96 1022.17 1022.40 1022.80 1022.76 1023.20 1023.83 1024.04 1024.61 1024.65 1024.75 1024.64
1009.97 1009.41 1009.54 1009.39 1009.30 1008.99 1008.95 1009.25 1010.14 1011.60 1012.19 1011.83 1012.00 1012.58 1013.48 1014.06 1014.47 1014.61 1014.70 1015.03 1015.57 1016.52 1017.13 1017.92 1018.24 1018.57 1018.88 1019.32 1019.92 1020.53 1020.93 1021.39 1021.53 1021.77 1021.80 1021.97 1022.52 1023.13 1023.64 1024.24 1024.74 1024.79 1024.78 1024.62
1008.61 1009.64 1009.89 1009.42 1009.36 1009.32 1009.61 1009.42 1010.32 1010.68 1011.97 1012.07 1011.87 1012.23 1013.07 1014.26 1014.73 1015.16 1015.23 1015.30 1015.78 1016.28 1017.02 1017.72 1018.24 1018.72 1019.17 1019.54 1019.92 1020.25 1020.75 1021.26 1021.62 1021.91 1022.25 1022.73 1023.22 1023.60 1023.77 1024.15 1024.23 1024.76 1024.91 1024.77
1009.44 1010.03 1009.77 1009.50 1009.64 1009.90 1009.85 1010.48 1010.55 1010.99 1011.08 1010.86 1011.82 1010.67 1012.17 1013.42 1014.25 1014.79 1015.31 1015.59 1016.05 1016.64 1017.27 1017.89 1018.45 1018.93 1019.41 1020.02 1020.45 1020.86 1021.44 1021.91 1022.37 1022.29 1022.28 1022.56 1022.64 1022.92 1023.95 1024.27 1024.50 1024.59 1025.11 1025.03
1009.99 1009.91 1009.89 1009.75 1010.11 1010.37 1010.58 1010.87 1010.76 1011.00 1010.75 1011.06 1011.21 1011.13 1011.42 1012.83 1013.36 1014.12 1015.01 1015.59 1016.25 1016.96 1017.53 1018.08 1018.62 1019.31 1020.02 1020.70 1021.19 1021.67 1021.99 1022.35 1022.73 1022.84 1022.78 1022.95 1023.43 1023.97 1024.45 1024.71 1024.92 1024.83 1024.68 1024.71
1010.06 1010.56 1010.38 1010.52 1010.95 1010.76 1011.36 1011.15 1011.23 1011.29 1011.11 1010.74 1010.42 1010.77 1009.91 1011.25 1011.77 1013.27 1014.56 1015.47 1016.29 1017.05 1017.74 1018.44 1019.20 1020.01 1020.65 1021.29 1021.82 1022.25 1022.41 1022.76 1023.12 1023.25 1023.55 1023.87 1024.29 1024.57 1024.68 1024.98 1024.89 1024.72 1024.64 1024.49
1010.14 1010.50 1010.95 1010.92 1010.96 1011.51 1011.20 1010.68 1010.68 1010.84 1010.93 1010.61 1011.26 1010.88 1009.64 1010.37 1011.30 1012.16 1013.69 1014.93 1016.11 1017.09 1017.79 1018.68 1019.52 1020.09 1020.87 1021.68 1022.28 1022.58 1022.83 1023.26 1023.71 1023.91 1024.20 1024.44 1024.62 1024.91 1024.98 1025.31 1025.20 1025.26 1024.92 1024.75
1009.41 1010.46 1010.78 1011.14 1010.86 1010.55 1010.85 1010.74 1010.68 1011.03 1011.40 1010.80 1011.69 1010.21 1009.55 1011.05 1011.43 1012.08 1013.43 1014.61 1015.75 1016.80 1017.76 1018.45 1019.32 1020.24 1021.05 1021.88 1022.36 1022.70 1023.02 1023.50 1024.06 1024.35 1024.60 1024.91 1025.12 1025.09 1025.21 1025.56 1025.61 1025.61 1025.46 1025.21
1009.76 1010.43 1011.30 1011.56 1011.40 1011.40 1011.40 1011.47 1011.87 1012.11 1012.90 1012.07 1010.79 1010.29 1010.59 1011.42 1011.81 1012.27 1013.08 1014.25 1015.33 1016.33 1017.54 1018.46 1019.65 1020.45 1021.25 1021.92 1022.45 1022.79 1023.11 1023.66 1024.26 1024.68 1025.14 1025.21 1025.32 1025.45 1025.71 1025.86 1025.83 1025.75 1025.61 1025.25
1010.32 1010.70 1011.44 1011.73 1011.68 1011.89 1011.42 1011.93 1012.14 1012.24 1012.36 1011.80 1010.58 1010.50 1010.00 1011.04 1011.54 1012.11 1012.74 1013.82 1014.95 1015.99 1017.34 1018.59 1019.70 1020.55 1021.25 1021.94 1022.61 1022.97 1023.19 1023.70 1024.39 1024.89 1024.88 1025.11 1025.26 1025.42 1025.65 1025.73 1025.81 1025.75 1025.52 1025.17
1010.67 1010.75 1011.76 1011.94 1011.34 1010.93 1011.96 1011.80 1012.39 1012.40 1012.87 1012.20 1011.42 1010.01 1010.76 1011.01 1011.34 1011.99 1012.69 1013.67 1014.56 1015.79 1017.21 1018.55 1019.64 1020.54 1021.29 1022.01 1022.52 1022.87 1023.29 1023.93 1024.40 1024.44 1024.96 1024.93 1024.99 1025.19 1025.41 1025.61 1025.65 1025.61 1025.47 1025.14
1011.52 1011.35 1011.45 1011.46 1012.02 1012.06 1011.70 1011.47 1011.87 1012.13 1012.91 1013.20 1012.73 1011.00 1011.36 1011.63 1011.81 1012.02 1012.61 1013.59 1014.50 1015.99 1017.18 1018.42 1019.46 1020.30 1021.11 1021.78 1022.28 1022.81 1023.35 1023.51 1023.78 1024.36 1024.74 1024.73 1024.72 1025.01 1025.26 1025.41 1025.41 1025.44 1025.24 1024.99
1011.84 1011.76 1011.69 1011.95 1012.42 1012.31 1011.82 1011.87 1012.07 1012.56 1012.87 1012.59 1012.26 1010.78 1011.28 1011.60 1011.88 1012.25 1012.64 1013.43 1014.88 1016.12 1017.22 1018.23 1019.24 1019.99 1020.75 1021.46 1022.10 1022.70 1023.16 1023.55 1023.77 1024.07 1024.07 1024.23 1024.50 1024.77 1024.96 1025.06 1025.13 1025.10 1024.91 1024.67
1012.39 1012.07 1011.67 1011.56 1011.43 1011.57 1011.76 1011.77 1011.94 1011.81 1012.14 1011.66 1011.21 1010.25 1010.59 1010.96 1011.32 1011.91 1012.65 1013.49 1014.84 1015.97 1016.96 1017.87 1018.86 1019.54 1020.27 1020.98 1021.66 1022.18 1022.80 1022.92 1023.33 1023.54 1023.68 1023.87 1024.21 1024.41 1024.60 1024.77 1024.79 1024.72 1024.58 1024.27
1012.80 1012.56 1012.86 1012.88 1012.90 1012.64 1012.11 1011.72 1011.76 1011.56 1011.32 1011.17 1010.08 1010.00 1009.78 1010.28 1010.83 1011.45 1012.65 1013.76 1014.77 1015.77 1016.67 1017.40 1018.15 1018.93 1019.67 1020.38 1021.06 1021.85 1021.84 1022.50 1022.99 1023.26 1023.33 1023.53 1023.96 1024.10 1024.19 1024.29 1024.30 1024.33 1024.23 1023.92
1013.60 1013.72 1013.99 1013.85 1013.81 1013.43 1012.71 1012.01 1011.54 1011.34 1011.02 1010.76 1010.12 1009.60 1009.75 1010.50 1011.33 1011.84 1012.84 1013.77 1014.53 1015.40 1016.23 1017.03 1017.74 1018.31 1019.01 1019.75 1020.76 1020.83 1021.52 1022.17 1022.66 1022.90 1023.12 1023.38 1023.64 1023.82 1023.90 1023.87 1023.93 1023.88 1023.65 1023.41
1013.97 1014.40 1014.78 1014.61 1014.67 1014.13 1013.35 1011.62 1011.10 1010.74 1010.40 1010.23 1009.69 1009.50 1010.24 1011.00 1011.48 1011.84 1012.60 1013.52 1014.20 1014.92 1015.74 1016.40 1017.05 1017.81 1018.63 1019.50 1020.17 1020.55 1021.18 1021.93 1022.41 1022.69 1022.99 1023.20 1023.39 1023.47 1023.39 1023.31 1023.29 1023.21 1023.13 1023.01
1014.67 1015.04 1015.47 1015.54 1015.51 1013.96 1011.57 1011.62 1011.21 1010.55 1010.22 1009.92 1009.82 1010.19 1010.79 1011.06 1011.59 1012.18 1012.50 1013.19 1013.88 1014.51 1015.22 1015.91 1016.72 1017.65 1018.49 1019.22 1019.92 1020.49 1021.19 1021.78 1022.27 1022.54 1022.70 1022.91 1023.04 1023.04 1022.91 1022.77 1022.77 1022.71 1022.72 1022.60
1015.10 1015.35 1015.89 1016.00 1014.84 1012.80 1011.42 1011.51 1011.47 1011.01 1009.80 1009.63 1009.78 1010.15 1011.24 1012.17 1012.41 1012.08 1012.61 1012.99 1013.43 1014.21 1014.96 1015.70 1016.54 1017.48 1018.33 1019.02 1019.84 1020.66 1021.24 1021.75 1022.16 1022.41 1022.58 1022.75 1022.90 1022.71 1022.50 1022.29 1022.34 1022.36 1022.32 1022.18
1015.76 1015.78 1015.45 1015.98 1014.91 1013.02 1011.70 1011.87 1011.97 1011.70 1010.47 1010.39 1010.50 1010.74 1011.63 1012.26 1011.96 1011.06 1012.02 1012.80 1013.46 1014.15 1014.91 1015.69 1016.52 1017.64 1018.39 1019.17 1019.93 1020.57 1020.98 1021.66 1021.96 1022.34 1022.51 1022.57 1022.45 1022.28 1022.06 1022.04 1021.97 1022.00 1022.04 1021.93
1015.86 1015.82 1015.66 1015.35 1014.49 1012.88 1012.03 1012.26 1012.30 1011.82 1011.45 1011.15 1011.25 1011.30 1011.81 1011.95 1011.56 1012.17 1012.46 1012.80 1013.67 1014.33 1015.16 1016.06 1017.17 1017.80 1018.82 1019.77 1020.45 1020.53 1021.09 1021.38 1021.96 1022.42 1022.41 1022.29 1022.13 1021.96 1021.84 1021.62 1021.58 1021.56 1021.51 1021.68
1014.53 1014.98 1015.17 1015.19 1014.19 1012.91 1012.37 1012.55 1012.29 1011.84 1011.56 1011.73 1011.78 1011.83 1012.07 1012.03 1012.59 1013.04 1013.40 1013.65 1014.02 1014.83 1016.02 1016.86 1017.75 1018.68 1019.50 1020.36 1020.95 1021.12 1021.06 1021.55 1022.03 1022.17 1022.06 1021.92 1021.86 1021.90 1021.64 1021.40 1021.36 1021.30 1021.27 1021.41
1014.28 1013.88 1013.78 1013.78 1012.57 1012.15 1012.26 1011.78 1011.92 1012.20 1012.06 1011.97 1012.12 1012.02 1012.46 1012.54 1012.71 1013.35 1013.88 1014.37 1015.07 1015.86 1016.70 1017.63 1018.37 1019.48 1019.56 1020.71 1021.12 1021.23 1021.16 1021.79 1021.99 1021.98 1021.83 1021.67 1021.68 1021.67 1021.31 1021.18 1021.02 1020.88 1020.93 1021.16
1013.77 1014.00 1013.72 1013.43 1011.94 1011.83 1011.85 1011.87 1011.95 1012.13 1012.15 1012.13 1012.14 1012.32 1012.49 1012.58 1012.71 1013.51 1014.44 1015.12 1016.01 1017.21 1018.33 1018.83 1019.39 1020.06 1020.66 1020.74 1021.23 1021.73 1021.87 1022.00 1022.12 1022.01 1021.85 1021.73 1021.74 1021.80 1021.27 1020.87 1020.72 1020.67 1020.72 1020.81
1013.50 1013.74 1013.04 1012.60 1011.87 1011.70 1011.60 1011.88 1012.10 1012.15 1012.36 1012.51 1012.49 1012.67 1012.93 1013.18 1013.36 1014.04 1015.26 1016.16 1017.15 1018.53 1019.20 1019.94 1020.85 1020.82 1020.88 1021.26 1021.53 1021.60 1022.08 1022.13 1022.04 1022.02 1021.84 1021.63 1021.62 1021.49 1021.46 1021.32 1020.94 1020.63 1020.52 1020.53
1013.14 1012.55 1012.53 1011.77 1011.41 1011.74 1011.72 1012.28 1012.77 1012.84 1012.97 1013.27 1013.40 1013.39 1014.07 1014.14 1014.32 1015.15 1016.58 1018.44 1019.13 1019.70 1020.51 1021.16 1021.37 1021.61 1021.71 1021.92 1021.93 1021.90 1021.99 1022.12 1021.97 1021.82 1021.57 1021.16 1021.17 1021.00 1021.07 1020.84 1020.53 1020.38 1020.58 1020.75
Wind_Speed
6 6 7 11 6 3 5 7 12 8 4 5 5 8 5 6 8 10 10 10 10 8 7 7 7 8 10 11 12 13 13 12 8 8 8 7 6 5 3 5 5 5 5 5
6 5 3 6 5 5 6 10 8 6 3 5 9 7 6 4 5 6 9 10 9 9 10 9 10 11 11 12 12 11 12 12 9 7 6 4 5 4 5 4 5 5 5 5
8 8 3 5 6 7 3 6 10 5 7 2 10 8 8 5 5 6 5 6 8 10 12 12 12 11 11 12 13 13 13 11 7 7 6 6 6 5 5 3 3 5 6 7
6 3 4 7 5 3 6 3 9 12 13 9 8 8 10 8 8 9 10 11 12 14 13 12 13 14 13 12 11 12 10 9 7 3 6 6 5 3 4 2 3 3 5 6
4 6 7 6 3 2 4 7 10 8 7 6 11 9 11 9 11 14 13 13 13 13 13 14 13 12 12 11 10 9 10 10 9 9 7 6 6 5 4 3 5 6 6 8
5 2 2 4 5 2 11 12 8 4 4 6 2 9 8 11 17 16 16 14 15 14 14 13 12 11 10 9 9 9 11 12 11 11 11 11 8 7 5 6 6 7 9 9
7 4 5 4 10 8 8 11 5 6 6 7 2 7 11 3 5 18 19 18 17 16 15 13 14 12 12 11 11 11 12 12 10 11 10 9 9 7 7 8 7 10 9 9
9 7 5 2 4 5 9 7 4 5 6 5 3 7 2 1 6 13 18 18 18 16 14 13 12 11 12 12 12 12 11 11 10 10 10 8 8 5 5 7 7 7 8 9
5 4 4 2 2 3 6 7 4 3 0 4 6 5 10 4 9 13 20 19 19 17 15 13 12 12 13 13 12 11 11 11 9 8 7 6 6 6 6 7 8 8 10 9
4 4 2 5 2 7 4 8 4 3 4 5 4 7 6 7 11 16 20 20 19 17 15 13 12 13 12 12 11 10 10 10 9 6 6 4 4 5 6 7 9 11 11 12
5 3 5 3 6 6 5 5 1 1 2 3 3 1 4 1 9 16 19 20 19 17 15 14 13 12 12 12 11 11 10 9 8 6 5 4 4 5 6 6 9 10 11 12
3 2 4 6 3 2 3 3 7 4 5 0 3 4 3 1 3 10 16 17 17 16 15 15 14 14 13 12 11 10 9 8 6 5 5 3 3 3 5 7 9 10 11 11
6 4 4 5 6 5 8 7 3 6 1 6 3 2 4 3 5 8 13 14 14 16 16 16 15 14 14 13 11 10 7 5 7 6 4 1 3 4 6 7 9 10 11 11
3 3 6 7 1 1 7 11 11 9 4 4 9 9 8 8 8 8 12 14 17 17 17 16 15 15 14 13 12 9 8 8 6 6 5 4 5 6 6 7 9 10 10 10
4 5 4 1 1 3 4 9 14 15 13 8 7 11 7 6 9 9 8 12 15 17 18 18 17 15 15 14 11 9 7 7 6 6 6 6 6 7 7 8 9 10 10 9
1 3 2 4 2 2 7 10 12 16 15 16 17 18 13 7 5 8 11 14 16 17 18 18 17 16 15 14 11 8 8 7 6 6 7 6 7 7 8 9 9 10 10 9
3 6 4 2 1 2 6 16 17 12 13 14 13 12 5 7 9 10 12 14 16 17 18 19 17 15 13 13 9 8 8 6 6 6 6 7 6 8 10 9 10 11 10 9
5 5 1 1 2 4 1 1 3 14 16 15 16 7 6 4 3 5 9 13 16 17 17 16 13 12 12 9 8 7 6 6 5 5 6 6 8 9 10 10 10 10 9 9
1 4 3 3 5 7 10 4 4 6 6 6 15 11 4 2 3 9 11 13 14 15 14 13 11 12 10 9 8 7 6 5 5 5 6 7 7 10 10 10 10 10 8 8
5 3 2 3 3 4 3 3 0 2 7 5 3 4 8 6 5 4 10 14 13 13 13 11 11 10 11 9 9 9 7 5 4 5 6 7 8 10 10 10 11 9 8 7
2 0 4 4 4 6 1 1 3 3 4 4 2 5 9 8 8 5 1 9 12 12 13 12 12 11 10 7 7 7 5 4 3 5 6 8 8 8 9 10 9 8 8 6
5 6 4 3 3 5 5 5 3 4 2 4 4 5 9 11 3 4 2 5 11 12 12 13 10 9 8 7 6 4 4 1 4 6 7 8 7 7 7 8 7 7 7 6
4 3 1 6 1 3 7 7 2 4 7 6 7 5 7 11 10 7 6 7 10 13 12 12 11 8 9 6 3 6 2 4 5 7 8 7 6 8 7 7 8 7 6 5
5 4 3 2 3 8 9 10 11 11 12 11 11 11 10 12 10 9 7 8 9 10 9 9 9 7 5 4 4 4 4 5 6 8 7 6 6 7 8 7 7 7 6 5
2 8 5 5 11 8 8 8 6 6 6 8 7 7 9 9 8 6 7 9 10 9 8 7 3 2 3 2 3 2 5 6 6 6 6 6 5 5 7 7 7 7 8 5
7 6 5 5 7 5 7 4 5 7 8 9 8 7 6 5 0 6 8 9 8 9 8 4 2 4 3 4 4 5 5 6 6 6 6 5 6 6 6 7 7 10 11 4
Wind_Direction
203 211 216 181 212 28 126 139 141 117 98 130 135 133 128 144 171 179 177 177 174 168 135 129 130 133 137 140 148 155 159 167 172 172 151 157 152 116 112 92 70 67 59 59
177 144 96 114 140 144 144 157 138 116 122 243 170 131 125 153 158 195 185 186 175 158 145 136 137 139 140 139 146 152 152 164 169 151 148 141 135 128 105 106 104 87 59 32
213 108 155 148 133 152 135 197 167 180 158 207 185 174 171 135 150 152 173 156 166 159 144 135 131 128 132 137 143 143 134 131 113 113 136 126 126 142 161 134 120 65 27 1
77 101 152 133 136 273 180 202 148 153 184 197 217 217 184 171 158 169 156 153 141 138 134 133 136 136 129 119 120 124 120 113 101 139 95 65 40 73 55 80 68 11 11 343
96 152 147 149 77 171 63 167 145 163 205 209 191 255 110 177 191 178 167 159 154 150 150 145 138 130 124 127 125 122 119 112 104 96 94 98 88 92 78 40 338 319 318 318
97 81 14 83 62 184 141 136 129 163 210 239 232 255 181 184 214 182 176 172 163 158 152 147 140 141 137 131 127 128 118 107 102 93 85 82 79 56 21 3 336 337 325 324
157 111 116 157 119 140 226 183 178 222 207 250 87 250 264 215 202 186 179 171 167 163 159 157 161 159 150 139 134 127 118 110 100 92 91 86 80 56 21 355 348 334 332 328
204 174 169 137 277 204 199 241 229 239 222 262 172 246 255 102 178 191 179 173 169 171 167 168 159 155 145 145 139 130 123 117 109 100 92 74 57 45 27 10 354 334 330 325
179 123 128 58 171 252 154 219 41 144 56 270 255 233 244 187 197 194 182 176 179 179 175 163 156 151 150 146 140 133 122 113 105 99 92 88 68 57 30 4 353 344 332 327
160 152 175 135 182 68 293 122 182 210 232 241 194 273 263 181 185 189 186 187 187 182 177 166 159 155 149 141 133 133 127 123 121 121 123 111 91 59 27 4 350 340 336 331
168 242 147 207 215 195 153 185 71 61 302 284 295 237 49 309 192 195 196 195 190 185 181 172 164 155 151 149 148 146 142 142 164 147 153 140 96 51 14 349 342 338 328 327
132 149 177 194 114 316 282 204 197 240 173 110 327 292 143 177 242 207 203 199 195 191 183 175 167 163 162 166 164 161 165 167 150 160 182 156 61 8 333 333 335 334 322 320
172 194 163 167 174 188 228 191 182 112 128 203 187 259 168 201 220 218 219 194 197 191 180 177 173 171 173 174 170 178 173 153 185 199 215 248 279 294 311 324 328 323 320 316
197 189 245 236 31 268 194 195 197 205 199 199 237 265 203 221 225 204 213 197 196 191 181 180 181 180 181 180 182 176 187 195 197 219 250 274 283 289 301 309 317 323 319 313
233 232 211 201 108 217 257 221 200 212 228 225 266 249 270 249 236 228 200 194 196 192 188 189 188 186 186 187 184 208 191 189 209 237 261 286 278 275 287 298 315 324 312 300
144 188 189 212 200 259 257 239 228 228 244 255 264 268 273 252 255 203 198 196 200 199 197 193 196 193 193 190 205 193 192 199 211 239 264 287 281 282 288 299 308 311 303 296
151 147 165 232 6 270 280 238 223 222 226 240 248 261 159 199 223 220 209 206 207 205 201 200 199 199 194 196 202 201 195 192 214 249 276 285 283 280 292 291 293 310 307 299
131 123 81 109 207 228 29 140 286 242 254 240 258 250 257 278 248 266 220 209 212 209 206 203 200 195 195 196 194 199 189 199 229 263 282 286 288 289 290 288 290 307 298 296
9 148 125 183 215 319 277 189 207 209 281 262 249 261 241 199 250 237 221 220 219 212 208 203 196 188 176 185 177 186 189 206 224 272 292 297 295 293 295 292 292 298 292 286
68 63 263 151 223 246 48 62 162 229 272 30 252 238 194 183 239 280 184 207 211 207 200 192 177 166 170 156 157 186 183 204 262 279 286 291 293 294 294 293 290 291 278 280
127 55 213 177 240 280 316 172 180 239 21 16 257 190 185 209 249 16 253 199 201 195 188 172 167 163 152 147 176 174 181 240 264 269 288 293 297 297 298 293 286 276 275 276
187 168 180 134 208 267 155 145 227 17 358 318 283 249 234 247 329 284 269 200 190 181 164 166 141 136 100 147 196 231 242 235 260 286 292 293 297 297 298 290 278 267 266 266
228 235 244 222 253 112 197 276 333 294 286 296 296 304 260 258 253 240 215 179 175 171 148 144 133 123 148 180 205 253 284 254 283 288 288 292 291 292 303 285 277 277 257 256
211 181 237 247 176 242 247 261 270 271 272 289 286 283 281 269 271 238 209 169 160 141 136 112 100 160 167 150 205 274 286 276 286 286 289 298 305 324 303 289 264 262 260 250
31 167 203 249 277 272 258 249 280 301 300 290 289 290 299 298 285 238 187 162 134 114 110 88 86 196 190 202 254 263 278 290 280 275 284 291 295 297 302 285 286 279 264 245
186 191 199 253 324 296 314 37 343 312 333 341 328 325 4 329 356 140 118 109 99 84 70 83 210 257 251 276 285 278 280 264 260 272 277 293 304 305 290 290 290 227 242 234